McCutcheon Field, NC

9:20 PM EST on December 03, 2016 (GMT -0500)
New River Marine Corps Air Station

Weather History for KNCA - August, 2012

Change the Weather History Date:

Wednesday, August 22, 2012

  Actual Average Record
Temperature  
Mean Temperature 78 °F -  
Max Temperature 84 °F 85 °F 95 °F (2005)
Min Temperature 72 °F 68 °F 62 °F (1998)
Cooling Degree Days 13    
Growing Degree Days 28 (Base 50)    
Moisture  
Dew Point 70 °F    
Average Humidity 85    
Maximum Humidity 94    
Minimum Humidity 61    
Precipitation  
Precipitation 0.43 in - - ()
Sea Level Pressure  
Sea Level Pressure 30.07 in    
Wind  
Wind Speed 5 mph (NE)    
Max Wind Speed 9 mph    
Max Gust Speed -    
Visibility 8 miles    
Events Rain , Thunderstorm    
Averages and records for this station are not official NWS values.
T = Trace of Precipitation, MM = Missing Value Source: NWS Daily Summary

Daily Weather History Graph

Daily Weather History Graph

Search for Another Location

Airport or City:

Trip Planner

Search our weather history database for the weather conditions in past years. The results will help you decide how hot, cold, wet, or windy it might be!

Date:

Astronomy

Aug. 22, 2012 Rise Set
Actual Time 6:35 AM EDT 7:48 PM EDT
Civil Twilight 6:09 AM EDT 8:14 PM EDT
Nautical Twilight 5:38 AM EDT 8:46 PM EDT
Astronomical Twilight 5:05 AM EDT 9:18 PM EDT
Moon 11:55 AM EDT (8/22) 10:46 PM EDT (8/22)
Length of Visible Light 14h 05m
Length of Day
13h 12m
Waxing Crescent, 29% of the Moon is Illuminated
Aug 22
Waxing Crescent
Aug 24
First Quarter
Aug 31
Full
Sep 8
Last Quarter
Sep 15
New

Hourly Weather History & Observations

Time (EDT) Temp. Heat Index Dew Point Humidity Pressure Visibility Wind Dir Wind Speed Gust Speed Precip Events Conditions
12:56 AM 73.9 °F - 70.0 °F 87% 30.07 in 10.0 mi ENE 5.8 mph - N/A   Partly Cloudy
1:56 AM 73.0 °F - 69.1 °F 87% 30.06 in 10.0 mi North 5.8 mph - N/A   Clear
2:56 AM 73.0 °F - 68.0 °F 84% 30.05 in 10.0 mi ENE 5.8 mph - N/A   Clear
3:56 AM 73.0 °F - 69.1 °F 87% 30.03 in 10.0 mi NNE 4.6 mph - N/A   Clear
4:56 AM 72.0 °F - 69.1 °F 91% 30.04 in 10.0 mi NE 3.5 mph - N/A   Mostly Cloudy
5:56 AM 72.0 °F - 69.1 °F 91% 30.06 in 10.0 mi North 3.5 mph - N/A   Mostly Cloudy
6:56 AM 72.0 °F - 68.0 °F 87% 30.07 in 10.0 mi North 3.5 mph - N/A   Mostly Cloudy
7:56 AM 73.0 °F - 69.1 °F 87% 30.09 in 10.0 mi NNE 4.6 mph - N/A   Mostly Cloudy
8:56 AM 75.9 °F - 69.1 °F 79% 30.09 in 10.0 mi NE 6.9 mph - N/A   Mostly Cloudy
9:56 AM 80.1 °F 83.2 °F 70.0 °F 71% 30.10 in 10.0 mi NE 6.9 mph - N/A   Scattered Clouds
10:56 AM 80.1 °F 83.2 °F 70.0 °F 71% 30.10 in 10.0 mi ENE 5.8 mph - N/A   Mostly Cloudy
11:56 AM 79.0 °F - 70.0 °F 74% 30.10 in 10.0 mi ENE 5.8 mph - 0.02 in Rain Light Rain
12:56 PM 84.0 °F 87.8 °F 69.1 °F 61% 30.09 in 10.0 mi NNE 8.1 mph - 0.00 in   Partly Cloudy
1:56 PM 82.9 °F 86.5 °F 69.1 °F 63% 30.08 in 10.0 mi NE 8.1 mph - N/A   Mostly Cloudy
2:56 PM 82.0 °F 84.9 °F 68.0 °F 62% 30.06 in 10.0 mi ENE 9.2 mph - N/A   Overcast
3:56 PM 73.9 °F - 71.1 °F 91% 30.06 in 4.0 mi South 8.1 mph - 0.09 in Rain Light Rain
4:09 PM 73.4 °F - 71.6 °F 94% 30.06 in 1.0 mi Calm Calm - 0.03 in Rain Light Rain
4:19 PM 73.4 °F - 71.6 °F 94% 30.06 in 1.0 mi Calm Calm - 0.09 in Rain Rain
4:26 PM 73.4 °F - 71.6 °F 94% 30.06 in 1.0 mi Variable 3.5 mph - 0.14 in Rain Heavy Rain
4:36 PM 73.4 °F - 69.8 °F 88% 30.06 in 1.0 mi ENE 3.5 mph - 0.27 in Rain Heavy Rain
4:47 PM 73.4 °F - 69.8 °F 88% 30.06 in 1.0 mi ENE 4.6 mph - 0.29 in Rain , Thunderstorm Light Thunderstorms and Rain
4:56 PM 75.0 °F - 70.0 °F 84% 30.06 in 6.0 mi NNE 5.8 mph - 0.29 in Rain , Thunderstorm Light Thunderstorms and Rain
5:13 PM 75.2 °F - 71.6 °F 89% 30.06 in 10.0 mi North 4.6 mph - 0.00 in   Overcast
5:56 PM 73.9 °F - 71.1 °F 91% 30.08 in 10.0 mi North 9.2 mph - 0.00 in   Overcast
6:56 PM 73.0 °F - 70.0 °F 90% 30.08 in 10.0 mi East 5.8 mph - N/A   Overcast
7:09 PM 73.4 °F - 69.8 °F 88% 30.07 in 7.0 mi ENE 5.8 mph - 0.01 in Rain Light Rain
7:21 PM 73.4 °F - 69.8 °F 88% 30.07 in 10.0 mi ENE 6.9 mph - 0.01 in Rain Light Rain
7:56 PM 73.0 °F - 71.1 °F 93% 30.08 in 10.0 mi South 3.5 mph - 0.01 in Rain Light Rain
8:34 PM 73.4 °F - 71.6 °F 94% 30.08 in 10.0 mi SE 3.5 mph - 0.01 in Rain Light Rain
8:56 PM 73.0 °F - 71.1 °F 93% 30.09 in 10.0 mi Calm Calm - 0.02 in Rain Light Rain
9:56 PM 73.0 °F - 71.1 °F 93% 30.09 in 10.0 mi North 4.6 mph - 0.00 in   Overcast
10:56 PM 73.0 °F - 71.1 °F 93% 30.09 in 10.0 mi ENE 5.8 mph - N/A   Scattered Clouds
11:56 PM 73.0 °F - 71.1 °F 93% 30.10 in 10.0 mi North 3.5 mph - N/A   Clear